This is the latest recevied weather packets stored in our database for station/object SP9EPI-13. If no packets are shown the sender has not sent any weather packets the latest 10 day(s).
| Time | Temp. | Humidity | Pressure | Rain* | Wind** | Luminosity | Snow |
|---|---|---|---|---|---|---|---|
| 1777753201 | 7.78° C | 99% | 1016.9 hPa | - | - | - | - |
| 1777752601 | 7.78° C | 99% | 1016.9 hPa | - | - | - | - |
| 1777752000 | 7.78° C | 99% | 1016.9 hPa | - | - | - | - |
| 1777751401 | 7.78° C | 99% | 1016.9 hPa | - | - | - | - |
| 1777750800 | 8.89° C | 99% | 1016.9 hPa | - | - | - | - |
| 1777750200 | 8.89° C | 99% | 1016.9 hPa | - | - | - | - |
| 1777749600 | 10° C | 99% | 1016.9 hPa | - | - | - | - |
| 1777749000 | 10° C | 89% | 1016.9 hPa | - | - | - | - |
| 1777748401 | 10° C | 82% | 1016.9 hPa | - | - | - | - |
| 1777747800 | 11.11° C | 75% | 1016.9 hPa | - | - | - | - |
| 1777747200 | 12.78° C | 67% | 1016.5 hPa | - | - | - | - |
| 1777746600 | 12.78° C | 61% | 1016.5 hPa | - | - | - | - |
| 1777746000 | 13.89° C | 61% | 1016.5 hPa | - | - | - | - |
| 1777745401 | 15° C | 57% | 1016.5 hPa | - | - | - | - |
| 1777744800 | 16.11° C | 48% | 1016.5 hPa | - | - | - | - |
| 1777744200 | 17.78° C | 44% | 1016.5 hPa | - | - | - | - |
| 1777743600 | 17.78° C | 44% | 1016.5 hPa | - | - | - | - |
| 1777743000 | 18.89° C | 41% | 1016.5 hPa | - | - | - | - |
| 1777742400 | 18.89° C | 39% | 1016.5 hPa | - | - | - | - |
| 1777741800 | 20° C | 37% | 1016.5 hPa | - | - | - | - |
| 1777741200 | 20° C | 36% | 1016.9 hPa | - | - | - | - |
| 1777740600 | 21.11° C | 35% | 1016.9 hPa | - | - | - | - |
| 1777740001 | 21.11° C | 34% | 1016.9 hPa | - | - | - | - |
| 1777739401 | 21.11° C | 33% | 1016.9 hPa | - | - | - | - |
| 1777738800 | 21.11° C | 32% | 1016.9 hPa | - | - | - | - |
* Rain since midnight (hover to see other rain measurements)
** Current wind speed in m/s (hover to see current wind gust speed)